This is the latest recevied weather packets stored in our database for station/object KE5QKR. If no packets are shown the sender has not sent any weather packets the latest 10 day(s).
| Time | Temp. | Humidity | Pressure | Rain* | Wind** | Luminosity | Snow |
|---|---|---|---|---|---|---|---|
| 1777643906 | 17.78° C | 98% | 1012 hPa | 0 mm | - | 49 W/m² | - |
| 1777643604 | 17.78° C | 98% | 1011.9 hPa | 0 mm | - | 100 W/m² | - |
| 1777643301 | 17.78° C | 98% | 1011.5 hPa | 0 mm | - | 97 W/m² | - |
| 1777642997 | 17.78° C | 98% | 1011.4 hPa | 0 mm | - | 63 W/m² | - |
| 1777642693 | 17.78° C | 98% | 1011.5 hPa | 0 mm | - | 58 W/m² | - |
| 1777642393 | 17.22° C | 98% | 1011.1 hPa | 0 mm | - | 45 W/m² | - |
| 1777642087 | 17.78° C | 99% | 1011.1 hPa | 0 mm | - | 45 W/m² | - |
| 1777641784 | 17.22° C | 99% | 1011.1 hPa | 0 mm | - | 37 W/m² | - |
| 1777641484 | 17.22° C | 99% | 1011 hPa | 0 mm | - | 26 W/m² | - |
| 1777641179 | 17.22° C | 99% | 1011.1 hPa | 0 mm | - | 19 W/m² | - |
| 1777640876 | 17.22° C | 99% | 1011.3 hPa | 0 mm | - | 12 W/m² | - |
| 1777640573 | 17.22° C | 99% | 1010.9 hPa | 0 mm | - | 17 W/m² | - |
| 1777640269 | 17.22° C | 99% | 1010.8 hPa | 1.78 mm | - | 25 W/m² | - |
| 1777639965 | 17.22° C | 99% | 1010.1 hPa | 1.78 mm | - | 40 W/m² | - |
| 1777639662 | 17.22° C | 99% | 1010.1 hPa | 0 mm | - | 41 W/m² | - |
| 1777639361 | 17.22° C | 99% | 1010.2 hPa | 0 mm | - | 34 W/m² | - |
| 1777639055 | 17.22° C | 99% | 1010.7 hPa | 0 mm | - | 24 W/m² | - |
| 1777638753 | 17.22° C | 99% | 1010.8 hPa | 0 mm | - | 33 W/m² | - |
| 1777638448 | 17.22° C | 99% | 1010.8 hPa | 0 mm | - | 34 W/m² | - |
| 1777638146 | 17.22° C | 99% | 1010.3 hPa | 0 mm | - | 43 W/m² | - |
| 1777637841 | 17.22° C | 99% | 1010.7 hPa | 0 mm | - | 35 W/m² | - |
| 1777637538 | 17.22° C | 99% | 1010.7 hPa | 0 mm | - | 23 W/m² | - |
| 1777637235 | 17.22° C | 99% | 1010.6 hPa | 0 mm | - | 13 W/m² | - |
| 1777636932 | 17.22° C | 99% | 1011 hPa | 0 mm | - | 10 W/m² | - |
| 1777636628 | 17.22° C | 99% | 1010.7 hPa | 0 mm | - | 13 W/m² | - |
* Rain latest hour (hover to see other rain measurements)
** Current wind speed in m/s (hover to see current wind gust speed)